When you browse on this site, cookies collect data to enhance your experience and personalize the content and advertising you see.
Visit our Privacy Policy to learn more. By continuing to use the site, you agree to this use of cookies and data.
  • în România
  • Lista ţărilor
  • Pe 7 zile
  • Temperatura apei
  • Meteo pe hartă
  • Widget-uri
  • user-avatar
    Intrare

    Meteo pe oră la Northampton

    Astăzi, 5 Decembrie, Joi

    Timp Temperatura Precipitaţii Vânt Presiune Umiditate
    00:00 +1°C° 0 mm 3 m/s 756 mmHg 94%
    01:00 +1°C° 0 mm 3 m/s 756 mmHg 94%
    02:00 +1°C° 0 mm 3 m/s 755 mmHg 94%
    03:00 +1°C° 0 mm 3 m/s 755 mmHg 94%
    04:00 +1°C° 0 mm 3 m/s 755 mmHg 94%
    05:00 +1°C° 0 mm 3 m/s 756 mmHg 95%
    06:00 +1°C° 0 mm 3 m/s 756 mmHg 95%
    07:00 +2°C° 0 mm 3 m/s 755 mmHg 95%
    08:00 +1°C° 0 mm 4 m/s 755 mmHg 95%
    09:00 +1°C° 0 mm 4 m/s 755 mmHg 95%
    10:00 +3°C° 0 mm 5 m/s 755 mmHg 90%
    11:00 +4°C° 0 mm 6 m/s 754 mmHg 86%
    12:00 +5°C° 0 mm 6 m/s 754 mmHg 83%
    13:00 +5°C° 0 mm 6 m/s 753 mmHg 83%
    14:00 +5°C° 0 mm 7 m/s 752 mmHg 83%
    15:00 +5°C° 0 mm 8 m/s 752 mmHg 84%
    16:00 +5°C° 0 mm 8 m/s 751 mmHg 84%
    17:00 +5°C° 0 mm 9 m/s 751 mmHg 83%
    18:00 +5°C° 0 mm 9 m/s 750 mmHg 83%
    19:00 +6°C° 0 mm 9 m/s 750 mmHg 84%
    20:00 +6°C° 0 mm 10 m/s 749 mmHg 85%
    21:00 +7°C° 0 mm 10 m/s 749 mmHg 86%
    22:00 +7°C° 0 mm 10 m/s 748 mmHg 86%
    23:00 +8°C° 0 mm 9 m/s 748 mmHg 87%

    Mâine, 6 Decembrie, Vineri

    Timp Temperatura Precipitaţii Vânt Presiune Umiditate
    00:00 +8°C° 0 mm 9 m/s 748 mmHg 87%
    01:00 +8°C° 0.1 mm 9 m/s 747 mmHg 88%
    02:00 +10°C° 0.1 mm 9 m/s 747 mmHg 90%
    03:00 +10°C° 0.1 mm 8 m/s 746 mmHg 91%
    04:00 +10°C° 0.1 mm 8 m/s 746 mmHg 91%
    05:00 +10°C° 0.1 mm 8 m/s 746 mmHg 92%
    06:00 +10°C° 0.1 mm 8 m/s 746 mmHg 92%
    07:00 +10°C° 0.3 mm 8 m/s 745 mmHg 92%
    08:00 +10°C° 0.3 mm 8 m/s 744 mmHg 92%
    09:00 +11°C° 0.3 mm 8 m/s 744 mmHg 91%
    10:00 +11°C° 0.1 mm 8 m/s 743 mmHg 88%
    11:00 +11°C° 0.1 mm 8 m/s 743 mmHg 85%
    12:00 +11°C° 0.1 mm 8 m/s 742 mmHg 83%
    13:00 +10°C° 0.3 mm 8 m/s 742 mmHg 83%
    14:00 +10°C° 0.3 mm 9 m/s 741 mmHg 83%
    15:00 +10°C° 0.3 mm 9 m/s 741 mmHg 83%
    16:00 +9°C° 0.2 mm 8 m/s 742 mmHg 83%
    17:00 +7°C° 0.2 mm 8 m/s 742 mmHg 83%
    18:00 +6°C° 0.2 mm 7 m/s 743 mmHg 83%
    19:00 +6°C° 0 mm 7 m/s 744 mmHg 84%
    20:00 +7°C° 0 mm 6 m/s 745 mmHg 85%
    21:00 +5°C° 0 mm 6 m/s 746 mmHg 86%
    22:00 +6°C° 0 mm 5 m/s 746 mmHg 87%
    23:00 +6°C° 0 mm 5 m/s 747 mmHg 88%

    Poimâine, 7 Decembrie, Sâmbătă

    Timp Temperatura Precipitaţii Vânt Presiune Umiditate
    00:00 +6°C° 0 mm 5 m/s 748 mmHg 89%
    01:00 +6°C° 0 mm 5 m/s 748 mmHg 89%
    02:00 +5°C° 0 mm 5 m/s 748 mmHg 90%
    03:00 +5°C° 0 mm 5 m/s 748 mmHg 91%
    04:00 +5°C° 0 mm 5 m/s 749 mmHg 91%
    05:00 +5°C° 0 mm 5 m/s 749 mmHg 91%
    06:00 +5°C° 0 mm 5 m/s 749 mmHg 91%
    07:00 +5°C° 0 mm 5 m/s 750 mmHg 91%
    08:00 +5°C° 0 mm 5 m/s 750 mmHg 90%
    09:00 +5°C° 0 mm 5 m/s 750 mmHg 90%
    10:00 +6°C° 0 mm 5 m/s 751 mmHg 87%
    11:00 +7°C° 0 mm 5 m/s 751 mmHg 85%
    12:00 +8°C° 0 mm 5 m/s 751 mmHg 82%
    13:00 +7°C° 0 mm 5 m/s 750 mmHg 84%
    14:00 +7°C° 0 mm 4 m/s 750 mmHg 86%
    15:00 +7°C° 0 mm 4 m/s 750 mmHg 87%
    16:00 +7°C° 0 mm 4 m/s 749 mmHg 89%
    17:00 +6°C° 0 mm 5 m/s 749 mmHg 91%
    18:00 +5°C° 0 mm 6 m/s 749 mmHg 93%
    19:00 +5°C° 0 mm 6 m/s 748 mmHg 92%
    20:00 +6°C° 0 mm 7 m/s 747 mmHg 92%
    21:00 +6°C° 0 mm 8 m/s 747 mmHg 91%
    22:00 +6°C° 0.4 mm 9 m/s 745 mmHg 90%
    23:00 +7°C° 0.4 mm 10 m/s 744 mmHg 89%

    8 Decembrie, Duminică

    Timp Temperatura Precipitaţii Vânt Presiune Umiditate
    00:00 +7°C° 0.4 mm 11 m/s 743 mmHg 88%
    01:00 +8°C° 0.7 mm 10 m/s 742 mmHg 89%
    02:00 +9°C° 0.7 mm 10 m/s 741 mmHg 90%
    03:00 +11°C° 0.7 mm 10 m/s 740 mmHg 91%
    04:00 +8°C° 0.1 mm 9 m/s 741 mmHg 87%
    05:00 +7°C° 0.1 mm 8 m/s 741 mmHg 82%
    06:00 +5°C° 0.1 mm 7 m/s 741 mmHg 78%
    07:00 +5°C° 0 mm 7 m/s 741 mmHg 79%
    08:00 +5°C° 0 mm 7 m/s 742 mmHg 80%
    09:00 +4°C° 0 mm 7 m/s 742 mmHg 80%
    10:00 +5°C° 0 mm 8 m/s 742 mmHg 78%
    11:00 +6°C° 0 mm 9 m/s 742 mmHg 76%
    12:00 +6°C° 0 mm 9 m/s 741 mmHg 74%
    13:00 +6°C° 0.2 mm 9 m/s 741 mmHg 74%
    14:00 +5°C° 0.2 mm 9 m/s 740 mmHg 75%
    15:00 +5°C° 0.2 mm 9 m/s 740 mmHg 76%
    16:00 +3°C° 0 mm 9 m/s 739 mmHg 76%
    17:00 +3°C° 0 mm 9 m/s 739 mmHg 76%
    18:00 +2°C° 0 mm 9 m/s 739 mmHg 76%
    19:00 +3°C° 0 mm 10 m/s 738 mmHg 76%
    20:00 +3°C° 0 mm 11 m/s 737 mmHg 77%
    21:00 +3°C° 0 mm 12 m/s 737 mmHg 78%
    22:00 +3°C° 0.1 mm 12 m/s 736 mmHg 79%
    23:00 +3°C° 0.1 mm 12 m/s 735 mmHg 80%

    9 Decembrie, Luni

    Timp Temperatura Precipitaţii Vânt Presiune Umiditate
    00:00 +3°C° 0.1 mm 12 m/s 735 mmHg 81%
    01:00 +3°C° 0.3 mm 12 m/s 735 mmHg 81%
    02:00 +3°C° 0.3 mm 12 m/s 735 mmHg 82%
    03:00 +3°C° 0.3 mm 12 m/s 736 mmHg 82%
    04:00 +3°C° 0.1 mm 13 m/s 736 mmHg 80%
    05:00 +4°C° 0.1 mm 14 m/s 737 mmHg 77%
    06:00 +4°C° 0.1 mm 14 m/s 737 mmHg 75%
    07:00 +4°C° 0 mm 13 m/s 739 mmHg 73%
    08:00 +5°C° 0 mm 13 m/s 741 mmHg 72%
    09:00 +5°C° 0 mm 12 m/s 743 mmHg 71%
    10:00 +6°C° 0 mm 11 m/s 745 mmHg 69%
    11:00 +6°C° 0 mm 11 m/s 747 mmHg 67%
    12:00 +6°C° 0 mm 10 m/s 749 mmHg 65%
    13:00 +6°C° 0 mm 9 m/s 750 mmHg 66%
    14:00 +5°C° 0 mm 8 m/s 751 mmHg 68%
    15:00 +5°C° 0 mm 7 m/s 752 mmHg 70%
    16:00 +4°C° 0 mm 6 m/s 753 mmHg 72%
    17:00 +5°C° 0 mm 5 m/s 754 mmHg 75%
    18:00 +3°C° 0 mm 5 m/s 754 mmHg 77%
    19:00 +4°C° 0 mm 4 m/s 755 mmHg 80%
    20:00 +3°C° 0 mm 4 m/s 755 mmHg 84%
    21:00 +3°C° 0 mm 3 m/s 755 mmHg 87%
    22:00 +3°C° 0 mm 3 m/s 755 mmHg 88%
    23:00 +3°C° 0 mm 3 m/s 755 mmHg 90%

    10 Decembrie, Marţi

    Timp Temperatura Precipitaţii Vânt Presiune Umiditate
    00:00 +3°C° 0 mm 3 m/s 754 mmHg 92%
    01:00 +3°C° 0.1 mm 4 m/s 753 mmHg 92%
    02:00 +3°C° 0.1 mm 5 m/s 753 mmHg 92%
    03:00 +4°C° 0.1 mm 6 m/s 752 mmHg 91%
    04:00 +4°C° 1.3 mm 7 m/s 750 mmHg 92%
    05:00 +5°C° 1.3 mm 8 m/s 748 mmHg 92%
    06:00 +6°C° 1.3 mm 9 m/s 746 mmHg 92%
    07:00 +6°C° 2.1 mm 9 m/s 745 mmHg 92%
    08:00 +7°C° 2.1 mm 9 m/s 744 mmHg 93%
    09:00 +8°C° 2.1 mm 10 m/s 742 mmHg 94%
    10:00 +9°C° 0.6 mm 10 m/s 741 mmHg 92%
    11:00 +11°C° 0.6 mm 10 m/s 740 mmHg 91%
    12:00 +12°C° 0.6 mm 10 m/s 739 mmHg 90%
    13:00 +12°C° 0.2 mm 11 m/s 738 mmHg 88%
    14:00 +12°C° 0.2 mm 11 m/s 736 mmHg 87%
    15:00 +12°C° 0.2 mm 12 m/s 735 mmHg 86%
    16:00 +11°C° 0.3 mm 11 m/s 735 mmHg 84%
    17:00 +9°C° 0.3 mm 11 m/s 735 mmHg 82%
    18:00 +8°C° 0.3 mm 11 m/s 735 mmHg 80%
    19:00 +6°C° 0.3 mm 10 m/s 737 mmHg 78%
    20:00 +5°C° 0.3 mm 9 m/s 738 mmHg 77%
    21:00 +3°C° 0.3 mm 9 m/s 739 mmHg 76%
    22:00 +2°C° 0 mm 8 m/s 740 mmHg 76%
    23:00 +2°C° 0 mm 8 m/s 740 mmHg 75%
    Arată mai mult